Погода в Старом Славкине

Россия / Пензенская область     52˚33′45″N   45˚07′39″E
темп.,
°C
ветер,
м/с
пор.,
м/с
влажн.,
%
обл.,
%
осадки,
мм/ч
давл.,
гПа
погр.,
м
18 января, пн
пн1800:00−24˚с0197100 0.0 101920
03:00−23˚св129594 0.0 101920
06:00−23˚всв3394100 0.0 101940
09:00−21˚всв3393100 0.0 101961
12:00−18˚в1187100 0.0 1019174
15:00−16˚всв1191100 0.1 1018188
18:00−17˚св2395100 0.0 1018125
21:00−17˚св2296100 0.0 101743
19 января, вт
вт1900:00−17˚ссз1296100 0.1 101724
03:00−18˚сз2396100 0.1 101787
06:00−21˚с239899 0.0 101721
09:00−21˚з229793 0.0 101721
12:00−18˚зсз239439 0.0 1017176
15:00−20˚з229754 0.0 101630
18:00−21˚зсз339891 0.0 101664
21:00−20˚зсз229995 0.1 101787
20 января, ср
ср2000:00−21˚з3598100 0.3 1017134
03:00−21˚зсз369799 0.4 1018230
06:00−22˚з369896 0.1 1018138
09:00−21˚зсз479798 0.1 1019234
12:00−19˚з4796100 0.1 1020271
15:00−18˚з4795100 0.1 1020319
18:00−19˚з599799 0.0 1022239
21:00−21˚зсз479995 0.1 1024128
21 января, чт
чт2100:00−22˚з469973 0.0 102585
03:00−22˚з469968 0.0 102686
06:00−22˚з349968 0.0 102779
09:00−22˚з359971 0.0 102887
12:00−18˚зюз459666 0.0 1028184
15:00−17˚юз489568 0.0 1027210
18:00−19˚юз5109564 0.0 1026181
21:00−18˚юз7169055 0.0 1024270
22 января, пт
пт2200:00−14˚юз9178999 0.0 1021411
03:00−10˚зюз9169399 0.6 1019532
06:00−7˚зюз101893100 0.8 1016646
09:00−3˚зюз101692100 0.9 1016776
12:00−1˚зюз91690100 0.1 1016774
15:00зюз81493100 0.1 1016759
18:00з81497100 0.1 1017623
21:00з61296100 0.1 1017606